Time,TemperatureF,DewpointF,PressureIn,WindDirection,WindDirectionDegrees,WindSpeedMPH,WindSpeedGustMPH,Humidity,HourlyPrecipIn,Conditions,Clouds,dailyrainin,SoftwareType,DateUTC
2013-03-16 00:09:00,32.9,23.9,29.76,NW,304,13.0,17.0,69,0.00,FEW,,0.00,WeatherDisplay:10.37,2013-03-16 04:09:00,
2013-03-16 00:29:00,32.8,24.1,29.78,WNW,300,12.0,20.0,70,0.00,FEW,,0.00,WeatherDisplay:10.37,2013-03-16 04:29:00,
2013-03-16 00:39:00,32.7,25.9,29.78,NNW,338,6.0,18.0,76,0.00,FEW,,0.00,WeatherDisplay:10.37,2013-03-16 04:39:00,
2013-03-16 00:49:00,31.8,26.3,29.79,North,10,5.0,12.0,80,0.00,FEW,,0.00,WeatherDisplay:10.37,2013-03-16 04:49:00,
2013-03-16 00:59:00,31.2,26.3,29.80,NNE,15,5.0,9.0,82,0.00,FEW,,0.00,WeatherDisplay:10.37,2013-03-16 04:59:00,
2013-03-16 01:09:00,30.9,26.6,29.80,North,5,1.0,9.0,84,0.00,-SN,,0.00,WeatherDisplay:10.37,2013-03-16 05:09:00,
2013-03-16 01:19:00,30.5,26.3,29.80,NE,43,5.0,6.0,84,0.00,-SN,,0.00,WeatherDisplay:10.37,2013-03-16 05:19:00,
2013-03-16 01:29:00,30.3,26.4,29.81,NE,37,0.0,5.0,85,0.00,-SN,,0.00,WeatherDisplay:10.37,2013-03-16 05:29:00,
2013-03-16 01:39:00,30.3,26.6,29.81,NNE,29,5.0,8.0,86,0.00,-SN,,0.00,WeatherDisplay:10.37,2013-03-16 05:39:00,
2013-03-16 01:49:00,30.2,26.5,29.81,North,3,9.0,12.0,86,0.00,-SN,,0.00,WeatherDisplay:10.37,2013-03-16 05:49:00,
2013-03-16 01:59:00,30.3,25.8,29.82,NNW,340,8.0,11.0,83,0.00,-SN,,0.00,WeatherDisplay:10.37,2013-03-16 05:59:00,
2013-03-16 02:09:00,30.5,23.2,29.82,NNW,341,13.0,17.0,74,0.00,-SN,,0.00,WeatherDisplay:10.37,2013-03-16 06:09:00,
2013-03-16 02:19:00,30.5,22.2,29.82,NNW,332,2.0,15.0,71,0.00,-SN,,0.00,WeatherDisplay:10.37,2013-03-16 06:19:00,
2013-03-16 02:29:00,30.3,21.3,29.82,NNW,341,8.0,12.0,69,0.00,-SN,,0.00,WeatherDisplay:10.37,2013-03-16 06:29:00,
2013-03-16 02:39:00,30.0,20.0,29.82,NNW,335,10.0,15.0,66,0.00,-SN,,0.00,WeatherDisplay:10.37,2013-03-16 06:39:00,
2013-03-16 02:49:00,29.8,19.8,29.82,NNW,331,9.0,15.0,66,0.00,-SN,,0.00,WeatherDisplay:10.37,2013-03-16 06:49:00,
2013-03-16 02:59:00,29.4,18.7,29.82,NNW,338,10.0,18.0,64,0.00,-SN,,0.00,WeatherDisplay:10.37,2013-03-16 06:59:00,
2013-03-16 03:09:00,29.2,18.5,29.83,NNW,329,12.0,17.0,64,0.00,-SN,,0.00,WeatherDisplay:10.37,2013-03-16 07:09:00,
2013-03-16 03:19:00,28.8,18.2,29.83,NNW,332,6.0,14.0,64,0.00,-SN,,0.00,WeatherDisplay:10.37,2013-03-16 07:19:00,
2013-03-16 03:29:00,28.6,17.6,29.83,NW,326,10.0,20.0,63,0.00,-SN,,0.00,WeatherDisplay:10.37,2013-03-16 07:29:00,
2013-03-16 03:39:00,28.3,17.0,29.83,NW,322,14.0,17.0,62,0.00,-SN,,0.00,WeatherDisplay:10.37,2013-03-16 07:39:00,
2013-03-16 03:49:00,28.2,16.1,29.83,NW,322,13.0,18.0,60,0.00,-SN,,0.00,WeatherDisplay:10.37,2013-03-16 07:49:00,
2013-03-16 03:59:00,28.0,16.3,29.83,NW,312,18.0,20.0,61,0.00,-SN,,0.00,WeatherDisplay:10.37,2013-03-16 07:59:00,
2013-03-16 04:09:00,27.8,15.7,29.83,NW,307,15.0,18.0,60,0.00,SCT,,0.00,WeatherDisplay:10.37,2013-03-16 08:09:00,
2013-03-16 04:19:00,27.5,16.2,29.83,NW,308,7.0,17.0,62,0.00,SCT,,0.00,WeatherDisplay:10.37,2013-03-16 08:19:00,
2013-03-16 04:29:00,27.0,16.1,29.83,NW,315,9.0,11.0,63,0.00,SCT,,0.00,WeatherDisplay:10.37,2013-03-16 08:29:00,
2013-03-16 04:39:00,26.8,15.9,29.83,NW,305,12.0,14.0,63,0.00,SCT,,0.00,WeatherDisplay:10.37,2013-03-16 08:39:00,
2013-03-16 04:49:00,26.7,15.8,29.83,NW,323,7.0,12.0,63,0.00,SCT,,0.00,WeatherDisplay:10.37,2013-03-16 08:49:00,
2013-03-16 04:59:00,26.4,15.9,29.84,NW,319,6.0,9.0,64,0.00,SCT,,0.00,WeatherDisplay:10.37,2013-03-16 08:59:00,
2013-03-16 05:09:00,26.1,15.6,29.84,NW,308,5.0,12.0,64,0.00,FEW,,0.00,WeatherDisplay:10.37,2013-03-16 09:09:00,
2013-03-16 05:19:00,25.7,15.6,29.84,NW,321,2.0,11.0,65,0.00,FEW,,0.00,WeatherDisplay:10.37,2013-03-16 09:19:00,
2013-03-16 05:29:00,25.6,15.8,29.84,NW,315,5.0,11.0,66,0.00,FEW,,0.00,WeatherDisplay:10.37,2013-03-16 09:29:00,
2013-03-16 05:39:00,25.4,15.6,29.85,NW,318,6.0,6.0,66,0.00,FEW,,0.00,WeatherDisplay:10.37,2013-03-16 09:39:00,
2013-03-16 05:49:00,24.5,15.8,29.85,NW,313,1.0,3.0,69,0.00,FEW,,0.00,WeatherDisplay:10.37,2013-03-16 09:49:00,
2013-03-16 05:59:00,23.6,15.6,29.85,NW,313,1.0,3.0,71,0.00,FEW,,0.00,WeatherDisplay:10.37,2013-03-16 09:59:00,
2013-03-16 06:09:00,23.3,15.6,29.85,NW,313,0.0,3.0,72,0.00,CLR,,0.00,WeatherDisplay:10.37,2013-03-16 10:09:00,
2013-03-16 06:19:00,22.9,15.5,29.85,NW,315,1.0,5.0,73,0.00,CLR,,0.00,WeatherDisplay:10.37,2013-03-16 10:19:00,
2013-03-16 06:29:00,22.5,15.7,29.86,NW,317,5.0,6.0,75,0.00,CLR,,0.00,WeatherDisplay:10.37,2013-03-16 10:29:00,
2013-03-16 06:39:00,22.9,15.5,29.86,WNW,293,2.0,6.0,73,0.00,CLR,,0.00,WeatherDisplay:10.37,2013-03-16 10:39:00,
2013-03-16 06:49:00,23.3,15.9,29.86,WNW,286,3.0,6.0,73,0.00,CLR,,0.00,WeatherDisplay:10.37,2013-03-16 10:49:00,
2013-03-16 06:59:00,23.2,15.5,29.86,NW,304,3.0,8.0,72,0.00,CLR,,0.00,WeatherDisplay:10.37,2013-03-16 10:59:00,
2013-03-16 07:09:00,23.0,15.6,29.86,WNW,294,3.0,6.0,73,0.00,FEW,,0.00,WeatherDisplay:10.37,2013-03-16 11:09:00,
2013-03-16 07:19:00,23.1,15.4,29.86,WNW,283,2.0,8.0,72,0.00,FEW,,0.00,WeatherDisplay:10.37,2013-03-16 11:19:00,
2013-03-16 07:29:00,23.5,15.8,29.86,West,267,5.0,9.0,72,0.00,FEW,,0.00,WeatherDisplay:10.37,2013-03-16 11:29:00,
2013-03-16 07:39:00,23.9,16.2,29.87,West,277,3.0,9.0,72,0.00,FEW,,0.00,WeatherDisplay:10.37,2013-03-16 11:39:00,
2013-03-16 07:49:00,24.9,16.5,29.87,West,280,3.0,12.0,70,0.00,FEW,,0.00,WeatherDisplay:10.37,2013-03-16 11:49:00,
2013-03-16 07:59:00,25.3,16.5,29.88,WNW,290,7.0,8.0,69,0.00,FEW,,0.00,WeatherDisplay:10.37,2013-03-16 11:59:00,
2013-03-16 08:09:00,25.7,16.6,29.88,NW,318,7.0,9.0,68,0.00,FEW,,0.00,WeatherDisplay:10.37,2013-03-16 12:09:00,
2013-03-16 08:19:00,26.4,17.2,29.88,WNW,298,6.0,9.0,68,0.00,FEW,,0.00,WeatherDisplay:10.37,2013-03-16 12:19:00,
2013-03-16 08:29:00,26.5,17.0,29.88,NW,307,5.0,9.0,67,0.00,FEW,,0.00,WeatherDisplay:10.37,2013-03-16 12:29:00,
2013-03-16 08:39:00,27.0,16.8,29.89,NW,316,7.0,11.0,65,0.00,FEW,,0.00,WeatherDisplay:10.37,2013-03-16 12:39:00,
2013-03-16 08:49:00,27.2,16.7,29.89,NW,311,6.0,11.0,64,0.00,FEW,,0.00,WeatherDisplay:10.37,2013-03-16 12:49:00,
2013-03-16 08:59:00,27.5,16.9,29.89,NNW,348,6.0,8.0,64,0.00,BKN,,0.00,WeatherDisplay:10.37,2013-03-16 12:59:00,
2013-03-16 09:09:00,27.7,16.4,29.88,WNW,297,9.0,11.0,62,0.00,BKN,,0.00,WeatherDisplay:10.37,2013-03-16 13:09:00,
2013-03-16 09:19:00,27.9,16.9,29.88,NNW,348,5.0,8.0,63,0.00,BKN,,0.00,WeatherDisplay:10.37,2013-03-16 13:19:00,
2013-03-16 09:29:00,27.9,16.2,29.89,NNW,341,3.0,9.0,61,0.00,BKN,,0.00,WeatherDisplay:10.37,2013-03-16 13:29:00,
2013-03-16 09:39:00,27.9,16.6,29.89,NNW,337,5.0,9.0,62,0.00,BKN,,0.00,WeatherDisplay:10.37,2013-03-16 13:39:00,
2013-03-16 09:49:00,28.0,16.3,29.89,North,349,8.0,9.0,61,0.00,BKN,,0.00,WeatherDisplay:10.37,2013-03-16 13:49:00,
2013-03-16 09:59:00,28.1,16.4,29.89,NNE,31,8.0,11.0,61,0.00,BKN,,0.00,WeatherDisplay:10.37,2013-03-16 13:59:00,
2013-03-16 10:09:00,28.1,16.0,29.88,NE,39,6.0,11.0,60,0.00,BKN,,0.00,WeatherDisplay:10.37,2013-03-16 14:09:00,
2013-03-16 10:19:00,28.2,16.5,29.88,NE,43,7.0,9.0,61,0.00,BKN,,0.00,WeatherDisplay:10.37,2013-03-16 14:19:00,
2013-03-16 10:29:00,28.3,16.2,29.88,NE,35,3.0,9.0,60,0.00,BKN,,0.00,WeatherDisplay:10.37,2013-03-16 14:29:00,
2013-03-16 10:39:00,28.8,16.3,29.88,NE,34,0.0,8.0,59,0.00,BKN,,0.00,WeatherDisplay:10.37,2013-03-16 14:39:00,
2013-03-16 10:49:00,29.2,16.3,29.88,ENE,70,6.0,8.0,58,0.00,BKN,,0.00,WeatherDisplay:10.37,2013-03-16 14:49:00,
2013-03-16 14:20:00,34.9,15.6,29.84,WNW,303,3.0,11.0,45,0.00,BKN,,0.00,WeatherDisplay:10.37,2013-03-16 18:20:00,
2013-03-16 17:40:00,34.3,17.1,29.80,NW,326,3.0,11.0,49,0.00,BKN,,0.00,WeatherDisplay:10.37,2013-03-16 21:40:00,
2013-03-16 17:50:00,33.9,16.8,29.81,NW,308,5.0,9.0,49,0.00,BKN,,0.00,WeatherDisplay:10.37,2013-03-16 21:50:00,
2013-03-16 18:00:00,33.9,16.7,29.81,NW,323,6.0,12.0,49,0.00,BKN,,0.00,WeatherDisplay:10.37,2013-03-16 22:00:00,
2013-03-16 18:10:00,33.7,17.0,29.81,NW,305,5.0,8.0,50,0.00,OVC,,0.00,WeatherDisplay:10.37,2013-03-16 22:10:00,
2013-03-16 18:20:00,33.4,16.8,29.81,NW,316,10.0,11.0,50,0.00,OVC,,0.00,WeatherDisplay:10.37,2013-03-16 22:20:00,
2013-03-16 18:30:00,33.3,17.1,29.81,NW,316,6.0,9.0,51,0.00,OVC,,0.00,WeatherDisplay:10.37,2013-03-16 22:30:00,
2013-03-16 18:40:00,33.1,17.4,29.82,NW,309,6.0,11.0,52,0.00,OVC,,0.00,WeatherDisplay:10.37,2013-03-16 22:40:00,
2013-03-16 18:50:00,32.9,17.2,29.82,NW,306,10.0,12.0,52,0.00,OVC,,0.00,WeatherDisplay:10.37,2013-03-16 22:50:00,
2013-03-16 19:00:00,32.7,17.5,29.82,NW,315,6.0,6.0,53,0.00,OVC,,0.00,WeatherDisplay:10.37,2013-03-16 23:00:00,
2013-03-16 19:10:00,32.6,17.8,29.83,NW,304,10.0,12.0,54,0.00,OVC,,0.00,WeatherDisplay:10.37,2013-03-16 23:10:00,
2013-03-16 19:20:00,32.4,17.6,29.83,NW,304,9.0,11.0,54,0.00,OVC,,0.00,WeatherDisplay:10.37,2013-03-16 23:20:00,
2013-03-16 19:30:00,32.3,17.9,29.84,NW,307,5.0,12.0,55,0.00,OVC,,0.00,WeatherDisplay:10.37,2013-03-16 23:30:00,
2013-03-16 19:40:00,32.3,18.8,29.84,WNW,292,7.0,9.0,57,0.00,OVC,,0.00,WeatherDisplay:10.37,2013-03-16 23:40:00,
2013-03-16 19:50:00,32.3,19.2,29.84,WNW,299,7.0,12.0,58,0.00,OVC,,0.00,WeatherDisplay:10.37,2013-03-16 23:50:00,
2013-03-16 20:00:00,32.2,18.6,29.84,WNW,282,6.0,11.0,57,0.00,OVC,,0.00,WeatherDisplay:10.37,2013-03-17 00:00:00,
2013-03-16 20:10:00,32.0,18.9,29.85,WNW,284,6.0,11.0,58,0.00,-SN,,0.00,WeatherDisplay:10.37,2013-03-17 00:10:00,
2013-03-16 20:20:00,31.7,18.6,29.85,West,280,6.0,9.0,58,0.00,-SN,,0.00,WeatherDisplay:10.37,2013-03-17 00:20:00,
2013-03-16 20:30:00,31.5,18.8,29.86,WNW,288,1.0,9.0,59,0.00,-SN,,0.00,WeatherDisplay:10.37,2013-03-17 00:30:00,
2013-03-16 20:40:00,31.3,18.6,29.86,West,274,5.0,9.0,59,0.00,-SN,,0.00,WeatherDisplay:10.37,2013-03-17 00:40:00,
2013-03-16 20:50:00,31.1,18.8,29.86,West,261,3.0,8.0,60,0.00,-SN,,0.00,WeatherDisplay:10.37,2013-03-17 00:50:00,
2013-03-16 21:00:00,30.9,18.6,29.86,WNW,284,5.0,8.0,60,0.00,-SN,,0.00,WeatherDisplay:10.37,2013-03-17 01:00:00,
2013-03-16 21:10:00,30.7,18.8,29.87,WNW,291,2.0,8.0,61,0.00,BKN,,0.00,WeatherDisplay:10.37,2013-03-17 01:10:00,
2013-03-16 21:20:00,30.7,18.8,29.87,West,277,3.0,9.0,61,0.00,BKN,,0.00,WeatherDisplay:10.37,2013-03-17 01:20:00,
2013-03-16 21:30:00,30.7,18.4,29.88,West,271,5.0,11.0,60,0.00,BKN,,0.00,WeatherDisplay:10.37,2013-03-17 01:30:00,
2013-03-16 21:40:00,30.5,18.3,29.88,West,273,3.0,12.0,60,0.00,BKN,,0.00,WeatherDisplay:10.37,2013-03-17 01:40:00,
2013-03-16 21:50:00,30.1,18.3,29.88,West,276,0.0,9.0,61,0.00,BKN,,0.00,WeatherDisplay:10.37,2013-03-17 01:50:00,
2013-03-16 22:00:00,29.8,18.0,29.88,West,277,5.0,8.0,61,0.00,BKN,,0.00,WeatherDisplay:10.37,2013-03-17 02:00:00,
2013-03-16 22:10:00,29.6,17.8,29.89,WNW,303,3.0,12.0,61,0.00,SCT,,0.00,WeatherDisplay:10.37,2013-03-17 02:10:00,
2013-03-16 22:20:00,29.4,17.6,29.89,West,274,8.0,12.0,61,0.00,SCT,,0.00,WeatherDisplay:10.37,2013-03-17 02:20:00,
2013-03-16 22:30:00,29.2,17.0,29.89,WNW,298,6.0,11.0,60,0.00,SCT,,0.00,WeatherDisplay:10.37,2013-03-17 02:30:00,
2013-03-16 22:40:00,29.1,16.9,29.90,West,279,10.0,18.0,60,0.00,SCT,,0.00,WeatherDisplay:10.37,2013-03-17 02:40:00,
2013-03-16 22:50:00,29.0,16.8,29.90,WNW,282,6.0,14.0,60,0.00,SCT,,0.00,WeatherDisplay:10.37,2013-03-17 02:50:00,
2013-03-16 23:00:00,28.9,16.7,29.91,WNW,288,8.0,18.0,60,0.00,SCT,,0.00,WeatherDisplay:10.37,2013-03-17 03:00:00,
2013-03-16 23:10:00,28.7,16.9,29.91,WNW,286,8.0,14.0,61,0.00,CLR,,0.00,WeatherDisplay:10.37,2013-03-17 03:10:00,
2013-03-16 23:20:00,28.6,16.8,29.91,WNW,291,9.0,14.0,61,0.00,CLR,,0.00,WeatherDisplay:10.37,2013-03-17 03:20:00,
2013-03-16 23:30:00,28.4,17.1,29.91,WNW,285,9.0,15.0,62,0.00,CLR,,0.00,WeatherDisplay:10.37,2013-03-17 03:30:00,
2013-03-16 23:40:00,28.2,17.2,29.92,WNW,283,8.0,15.0,63,0.00,CLR,,0.00,WeatherDisplay:10.37,2013-03-17 03:40:00,
2013-03-16 23:50:00,28.1,17.5,29.92,WNW,286,10.0,18.0,64,0.00,CLR,,0.00,WeatherDisplay:10.37,2013-03-17 03:50:00,